This demonstration page uses our WeatherBlox Daily Observations layout. Learn more.

Left ArrowRight Arrow

Hourly Observations for May 19, 2018

Temp ( °F °C ) Dew Point ( °F °C ) Humidity (%) Winds ( mph kmh ) Pressure ( in mb ) Visibility ( mi km ) Precip ( " mm )
12:51 am 00:51 Clear 63 17.2 9 -12.8 12 12 NW 10 17 29.72 1006 10 16 0.00 0.00
1:51 am 01:51 Clear 63 17.2 10 -12.2 12 12 NW 7 11 29.71 1006 10 16 0.00 0.00
2:51 am 02:51 Clear 60 15.6 11 -11.7 14 14 SE 5 7 29.73 1007 10 16 0.00 0.00
3:51 am 03:51 Clear 58 14.4 9 -12.8 14 14 SSE 6 9 29.73 1007 10 16 0.00 0.00
4:51 am 04:51 Clear 54 12.2 8 -13.3 16 16 ESE 5 7 29.75 1007 10 16 0.00 0.00
5:51 am 05:51 Sunny 55 12.8 9 -12.8 16 16 ENE 6 9 29.77 1008 10 16 0.00 0.00
6:51 am 06:51 Sunny 61 16.1 9 -12.8 13 13 SSE 3 6 29.77 1008 10 16 0.00 0.00
7:51 am 07:51 Sunny 70 21.1 10 -12.2 10 10 Calm 29.77 1008 10 16 0.00 0.00
8:51 am 08:51 Sunny 75 23.9 11 -11.7 8 8 W 5 7 29.77 1008 10 16 0.00 0.00
9:51 am 09:51 Sunny 79 26.1 12 -11.1 8 8 SW 3 6 29.76 1008 10 16 0.00 0.00
10:51 am 10:51 Sunny 85 29.4 13 -10.6 7 7 N 7 11 29.75 1007 10 16 0.00 0.00
11:51 am 11:51 Sunny 85 29.4 12 -11.1 6 6 E 8 13 29.72 1007 10 16 0.00 0.00
12:51 pm 12:51 Sunny 85 29.4 10 -12.2 6 6 Calm 29.72 1006 10 16 0.00 0.00
1:51 pm 13:51 Sunny 89 31.7 8 -13.3 5 5 Calm 29.69 1005 10 16 0.00 0.00
2:51 pm 14:51 Sunny 91 32.8 7 -13.9 4 4 SSE 9 15 29.66 1004 10 16 0.00 0.00
3:51 pm 15:51 Sunny 91 32.8 5 -15 4 4 Calm 29.64 1004 10 16 0.00 0.00
4:51 pm 16:51 Sunny 92 33.3 7 -13.9 4 4 VRB 5 7 29.63 1003 10 16 0.00 0.00
5:51 pm 17:51 Sunny 90 32.2 8 -13.3 4 4 NW 10 17 29.62 1003 10 16 0.00 0.00
6:51 pm 18:51 Sunny 87 30.6 9 -12.8 5 5 NW 7 11 29.63 1003 10 16 0.00 0.00
7:51 pm 19:51 Clear 83 28.3 13 -10.6 7 7 NW 14 22 29.64 1004 10 16 0.00 0.00
8:51 pm 20:51 Clear 81 27.2 15 -9.4 8 8 NW 15 24 29.67 1005 10 16 0.00 0.00
9:51 pm 21:51 Clear 79 26.1 15 -9.4 9 9 NW 15 24 29.68 1005 10 16 0.00 0.00
10:51 pm 22:51 Clear 73 22.8 17 -8.3 12 12 WNW 12 19 29.69 1005 10 16 0.00 0.00
11:51 pm 23:51 Clear 71 21.7 17 -8.3 13 13 NW 10 17 29.71 1006 10 16 0.00 0.00

Powered by AerisWeather